TimeCDT,TemperatureF,Dew PointF,Humidity,Sea Level PressureIn,VisibilityMPH,Wind Direction,Wind SpeedMPH,Gust SpeedMPH,PrecipitationIn,Events,Conditions,WindDirDegrees,DateUTC
12:53 AM,48.0,45.0,89,30.15,10.0,Calm,Calm,-,N/A,,Overcast,0,2013-10-27 05:53:00
1:53 AM,52.0,46.9,83,30.15,10.0,Calm,Calm,-,N/A,,Overcast,0,2013-10-27 06:53:00
2:53 AM,51.1,46.9,86,30.13,10.0,Calm,Calm,-,N/A,,Overcast,0,2013-10-27 07:53:00
3:53 AM,52.0,46.9,83,30.13,10.0,Calm,Calm,-,N/A,,Overcast,0,2013-10-27 08:53:00
4:53 AM,52.0,48.0,86,30.13,10.0,Calm,Calm,-,N/A,,Overcast,0,2013-10-27 09:53:00
5:53 AM,51.1,46.9,86,30.13,10.0,Calm,Calm,-,N/A,,Mostly Cloudy,0,2013-10-27 10:53:00
6:53 AM,48.9,46.0,90,30.14,9.0,Calm,Calm,-,N/A,,Mostly Cloudy,0,2013-10-27 11:53:00
7:53 AM,52.0,48.0,86,30.15,9.0,Calm,Calm,-,N/A,,Overcast,0,2013-10-27 12:53:00
8:53 AM,55.0,48.0,77,30.17,10.0,SSW,4.6,-,N/A,,Partly Cloudy,200,2013-10-27 13:53:00
9:53 AM,61.0,46.9,60,30.17,10.0,South,4.6,-,N/A,,Clear,170,2013-10-27 14:53:00
10:53 AM,66.0,48.9,54,30.17,10.0,South,3.5,-,N/A,,Clear,180,2013-10-27 15:53:00
11:53 AM,70.0,50.0,49,30.15,10.0,SW,4.6,-,N/A,,Mostly Cloudy,220,2013-10-27 16:53:00
12:53 PM,73.9,51.1,45,30.12,10.0,SSW,6.9,-,N/A,,Clear,200,2013-10-27 17:53:00
1:53 PM,71.1,51.1,49,30.11,10.0,SSW,6.9,-,N/A,,Clear,210,2013-10-27 18:53:00
2:53 PM,68.0,53.1,59,30.11,10.0,South,3.5,-,N/A,,Scattered Clouds,170,2013-10-27 19:53:00
3:53 PM,68.0,54.0,61,30.12,10.0,Calm,Calm,-,0.00,Rain,Light Rain,0,2013-10-27 20:53:00
4:53 PM,64.9,57.0,75,30.11,10.0,Calm,Calm,-,0.00,,Overcast,0,2013-10-27 21:53:00
5:53 PM,63.0,60.1,90,30.12,6.0,Calm,Calm,-,0.01,Rain,Light Rain,0,2013-10-27 22:53:00
6:53 PM,61.0,59.0,93,30.11,5.0,Calm,Calm,-,0.00,,Mostly Cloudy,0,2013-10-27 23:53:00
7:30 PM,60.8,57.2,88,30.11,1.5,Calm,Calm,-,N/A,,Partly Cloudy,0,2013-10-28 00:30:00
7:41 PM,57.2,57.2,100,30.11,0.5,Calm,Calm,-,N/A,Fog,Fog,0,2013-10-28 00:41:00
7:47 PM,59.0,57.2,94,30.11,0.2,Calm,Calm,-,N/A,Fog,Fog,0,2013-10-28 00:47:00
7:48 PM,59.0,57.0,93,30.11,0.2,Calm,Calm,-,N/A,Fog,Fog,0,2013-10-28 00:48:00
8:09 PM,57.2,55.4,94,30.11,0.5,Calm,Calm,-,N/A,Fog,Fog,0,2013-10-28 01:09:00
8:16 PM,57.2,55.4,94,30.11,0.2,Calm,Calm,-,N/A,Fog,Fog,0,2013-10-28 01:16:00
8:32 PM,57.2,55.4,94,30.12,0.5,Calm,Calm,-,N/A,Fog,Fog,0,2013-10-28 01:32:00
8:48 PM,57.2,57.2,100,30.11,1.2,Calm,Calm,-,N/A,,Partly Cloudy,0,2013-10-28 01:48:00
8:53 PM,57.9,57.0,97,30.12,1.8,Calm,Calm,-,N/A,,Partly Cloudy,0,2013-10-28 01:53:00
9:04 PM,59.0,57.2,94,30.12,3.0,Calm,Calm,-,N/A,,Clear,0,2013-10-28 02:04:00
9:53 PM,57.9,57.0,97,30.12,7.0,Calm,Calm,-,N/A,,Scattered Clouds,0,2013-10-28 02:53:00
10:53 PM,57.9,57.0,97,30.13,4.0,Calm,Calm,-,N/A,,Overcast,0,2013-10-28 03:53:00
11:53 PM,57.9,57.0,97,30.12,6.0,Calm,Calm,-,N/A,,Scattered Clouds,0,2013-10-28 04:53:00